Regional Weather Roundup
Issued by NWS Mt. Holly, NJ

Home | Current Version | Previous Version | Text Only | Print | Product List | Glossary On
Versions: 1 2 3 4 5 6 7 8 9 10 11 12 13 14 15 16 17 18 19 20 21 22 23 24 25 26 27 28 29 30 31 32 33 34 35 36 37 38 39 40 41 42 43 44 45 46 47 48 49
000
ASUS41 KPHI 010612
RWRPHI

REGIONAL WEATHER ROUNDUP
NATIONAL WEATHER SERVICE MOUNT HOLLY NJ
200 AM EDT SAT AUG 01 2015

NOTE:  "FAIR" INDICATES FEW OR NO CLOUDS BELOW 12,000 FEET WITH NO
SIGNIFICANT WEATHER AND/OR OBSTRUCTIONS TO VISIBILITY.

 * = STATION DOES NOT REPORT PRECIPITATION (E.G. RAIN, SNOW, ETC.)
        OR FOG.

NJZ015>026-010700-
SOUTHERN NEW JERSEY

CITY           SKY/WX    TMP DP  RH WIND       PRES   REMARKS
POMONA         CLEAR     74  67  78 SW6       29.86F
6HR MIN TEMP:  71; 6HR MAX TEMP:  83;

RIO GRANDE*    CLEAR     73  64  73 SW5       29.88F
MILLVILLE      CLEAR     67  65  93 CALM      29.86F
WRIGHTSTOWN    CLEAR     69  63  80 SW5       29.82F
MOUNT HOLLY    CLEAR     69  62  78 CALM      29.84F
TRENTON        CLEAR     73  60  63 SW5       29.83F
6HR MIN TEMP:  71; 6HR MAX TEMP:  84;


$$
NJZ001>014-010700-
NORTHERN NEW JERSEY

CITY           SKY/WX    TMP DP  RH WIND       PRES   REMARKS
SUSSEX         CLEAR     63  60  90 CALM      29.83F
ANDOVER*         N/A     64  63  96 CALM      29.84F
MORRISTOWN     CLOUDY    64  59  82 CALM      29.82F
NEWARK         PTCLDY    75  60  59 SW6       29.81F
TETERBORO      CLEAR     75  60  59 CALM      29.80F
CALDWELL       MOCLDY    71  60  68 CALM      29.82F
SOMERVILLE     CLEAR     63  61  93 CALM      29.81F
ALLAIRE*       CLEAR     72  57  60 MISG        N/A
TOMS RIVER*      N/A     64  61  88 CALM      29.85F

$$
PAZ043-044-047-054-055-060>062-066>071-010700-
EASTERN PENNSYLVANIA

CITY           SKY/WX    TMP DP  RH WIND       PRES   REMARKS
PHILADELPHIA   CLEAR     76  65  68 SW8       29.85F
6HR MIN TEMP:  76; 6HR MAX TEMP:  87;

NORTH PHILA    CLEAR     79  59  50 SW8       29.85F
BLUE BELL      CLEAR     64  64 100 CALM      29.84F
DOYLESTOWN     CLEAR     68  60  75 S3        29.84F
QUAKERTOWN*    CLEAR     64  63  94 CALM      29.86S
POTTSTOWN      CLEAR     67  62  84 CALM      29.86F
LANCASTER      PTCLDY    70  63  78 CALM      29.86S
COATESVILLE    PTCLDY    72  63  73 W5        29.88F
READING        CLEAR     73  61  65 CALM      29.84F
6HR MIN TEMP:  69; 6HR MAX TEMP:  82;

ALLENTOWN      CLEAR     67  62  84 CALM      29.83F
6HR MIN TEMP:  67; 6HR MAX TEMP:  79;

MOUNT POCONO   CLEAR     66  57  72 W8        29.88F
6HR MIN TEMP:  65; 6HR MAX TEMP:  74;

HAZLETON       PTCLDY    70  59  68 W3        29.91F
WILKES BARRE   CLEAR     69  60  73 S3        29.84F

$$
DEZALL-MDZ008-012-015-019-020-010700-
DELAWARE AND EASTERN MARYLAND

CITY           SKY/WX    TMP DP  RH WIND       PRES   REMARKS
WILMINGTON     CLEAR     73  64  73 SW3       29.86F
6HR MIN TEMP:  73; 6HR MAX TEMP:  82;

DOVER          CLEAR     72  66  81 S7        29.85F
GEORGETOWN     CLEAR     69  65  86 SW5       29.89F
6HR MIN TEMP:  69; 6HR MAX TEMP:  83;

EASTON         CLEAR     73  71  95 CALM      29.91F
PATUXENT       CLEAR     73  65  75 SW7       29.89F
OCEAN CITY     CLEAR     73  64  73 W7        29.88F
WALLOPS ISLAND CLEAR     75  67  76 SW7       29.89F
CAMBRIDGE      CLEAR     70  64  83 CALM      29.88F
SALISBURY      CLEAR     72  66  81 W5        29.88F

$$
PAZ001-021-NYZ056-072-MDZ011-DCZ001-010700-
OTHER NEARBY LOCATIONS

CITY           SKY/WX    TMP DP  RH WIND       PRES   REMARKS
HARRISBURG     CLEAR     76  61  59 SW7       29.85S
STATE COLLEGE  MOCLDY    66  60  80 SW5       29.88S
WILLIAMSPORT   CLEAR     65  61  87 CALM      29.82F
BINGHAMTON     CLOUDY    68  60  75 SW8       29.83F
NEW YORK CITY  CLEAR     79  58  48 VRB5      29.84F
BALTIMORE      PTCLDY    70  63  78 W5        29.87F
WASHINGTON DC  PTCLDY    77  64  64 S7        29.89F

$$


USA.gov is the U.S. government's official web portal to all federal, state and local government web resources and services.